Regional Weather Roundup
Issued by NWS Northern Indiana

Home | Current Version | Previous Version | Graphics & Text | Print | Product List | Glossary On
Versions: 1 2 3 4 5 6 7 8 9 10 11 12 13 14 15 16 17 18 19 20 21 22 23 24 25 26 27 28 29 30 31 32 33 34 35 36 37 38 39 40 41 42 43 44 45 46 47 48 49 50
000
ASUS43 KIWX 290410
RWRIWX

KIWX WEATHER ROUNDUP
NATIONAL WEATHER SERVICE NORTHERN INDIANA
1200 AM EDT SUN MAY 29 2016

NOTE: "FAIR" INDICATES FEW OR NO CLOUDS BELOW 12,000 FEET WITH NO
SIGNIFICANT WEATHER AND/OR OBSTRUCTIONS TO VISIBILITY.

* THESE STATIONS ARE NOT UNDER NWS QUALITY CONTROL. THEY ALSO MAY NOT
  REPORT WEATHER SUCH AS PRECIPITATION OR FOG.

INZ001>027-290500-
NORTHERN INDIANA

CITY           SKY/WX    TMP DP  RH WIND       PRES   REMARKS
GARY*          PTCLDY    77  71  82 S9G17     29.96S
VALPARAISO     MOCLDY    74  63  68 S10       29.99R
MICHIGAN CITY* PTCLDY    73  63  68 S8        29.99R
LAPORTE*       PTCLDY    75  65  71 S10       30.00R
KNOX*          CLOUDY    72  55  56 S13       30.00R
SOUTH BEND     PTCLDY    74  64  71 S10       30.00R
GOSHEN         PTCLDY    72  62  71 S10       30.02R
MONTICELLO*    PTCLDY    73  63  72 S9        30.00S
LOGANSPORT*    PTCLDY    72  63  73 S9        30.03S
ROCHESTER*     PTCLDY    73  66  78 S7        30.02S
WARSAW*        MOCLDY    72  63  73 S3        30.03R
ANGOLA*          N/A     72  64  78 S6        30.02F
FORT WAYNE     MOCLDY    70  65  84 S8        30.04S
HUNTINGTON*    CLOUDY   N/A N/A N/A S7        30.03S
PERU/GRISSOM   MOCLDY    72  65  78 S12       30.02R
MARION*        CLOUDY    71  66  84 S7        30.04S

$$
INZ028>050-290500-
CENTRAL INDIANA

CITY           SKY/WX    TMP DP  RH WIND       PRES   REMARKS
LAFAYETTE      PTCLDY    71  65  81 S6        30.01R
KOKOMO*        MOCLDY    72  61  68 S8        30.03S
MUNCIE*        CLOUDY    72  65  78 S8        30.06R
INDIANAPOLIS   MOCLDY    72  65  78 S10       30.03S

$$
MIZ043>046-050>051-056>058-064>065-071>073-077>080-290500-
SOUTHWEST LOWER MICHIGAN

CITY           SKY/WX    TMP DP  RH WIND       PRES   REMARKS
BATTLE CREEK   PTCLDY    72  64  76 S10       30.02R
BENTON HARBOR  CLEAR     75  63  66 S8        29.97R
COLDWATER*     CLOUDY    73  63  70 S6        30.02S
HILLSDALE*     CLOUDY    70  63  79 S6        30.04S
HOLLAND        PTCLDY    72  62  71 S7        29.98R
GRAND RAPIDS   MOCLDY    75  62  64 S13       29.98R
KALAMAZOO      PTCLDY    73  62  68 S9        30.00R
STURGIS*       MOCLDY    72  64  74 S10       30.01S
THREE RIVERS*  FAIR      72  64  74 S6        30.01S

$$
OHZ001>008-015>018-024>025-290500-
NORTHWEST OHIO

CITY           SKY/WX    TMP DP  RH WIND       PRES   REMARKS
WAUSEON*         N/A     70  70 100 S10       30.04F
DEFIANCE       CLOUDY    71  64  78 S5        30.04S
FINDLAY        CLEAR     70  60  70 S6        30.06F
TOLEDO EXPRESS CLEAR     70  62  76 S5        30.04F
TOLEDO METCALF CLEAR     70  60  70 S7        30.06S
LIMA           CLEAR     67  62  84 SE6       30.07F

$$
AND FOR LAKE MICHIGAN COASTAL AND OPEN LAKE BUOY OBSERVATIONS

STATION/POSITION TEMP    WIND        PRES    VSBY  WAVE
                 AIR SEA DIR/SP/G                  HT/PER
                 (F)     (DEG/KT/KT) (MB)    (MI)  (FT/S)
CALUMET HARBOR    77                 1013.4R
MICHIGAN CITY     76     160/ 17/ 19   N/A
BURNS HARBOR      76     180/ 11/ 18 1014.6R
SAINT JOSEPH      75     170/  5/ 10 1015.2S
SOUTH LAKE BUOY   58 50  180/ 12/ 14 1013.7R         2/ 4
4 MI NW BRIDGMAN  70 61  160/ 10/ 14   N/A           2/ 3
MICHIGAN CITY     68 56  200/ 10/ 12   N/A           1/ 2

$$
&&




USA.gov is the U.S. government's official web portal to all federal, state and local government web resources and services.